Notices

What's New in latest Release from April 7th, 2021:

- Updated Glossary, including Speed of Maximum Gust, and Total Hourly Precipitation

- Updated national and regional climate services offices contacts and prices information

- Addition of station inventory lists for 1981-2010, 1971-2000, and 1961-1990 Normals.

If you haven't already, please take our survey and provide feedback about our website: https://eccc.sondage-survey.ca/f/LanguageSelection.aspx?s=442ca660-fcf1-47c0-95a9-59707d6fd709

Hourly Data Report for April 29, 2019

MIRAMICHI RCS
NEW BRUNSWICK
Current Station Operator: ECCC - MSC

47°00'34.000" N
65°27'54.000" W
33.00 m
8100989
71744
ACQ

Download Data

Hourly Data (April 2019)
Hourly Data Report for April 29, 2019
TIME
LST
Temp Definition
°C
Dew Point Definition
°C
Rel Hum Definition
%
Precip. Amount Definition
mm

Wind Dir Definition
10's deg

Wind Spd Definition
km/h
Visibility Definition
km
Stn Press Definition
kPa
Hmdx Definition


Wind Chill Definition


Weather Definition


00:00 1.4 -5.0 62 0.0 30 9   100.91     LegendNANA
01:00 0.7 -5.0 66 0.0 28 12   100.98     LegendNANA
02:00 1.1 -4.8 65 0.0 29 11   101.01     LegendNANA
03:00 1.5 -6.1 57 0.0 30 18   101.01     LegendNANA
04:00 1.2 -6.5 57 0.0 29 19   101.03     LegendNANA
05:00 1.0 -6.5 57 0.0 30 16   101.07     LegendNANA
06:00 1.1 -6.9 55 0.0 29 19   101.14     LegendNANA
07:00 1.5 -7.3 52 0.0 29 17   101.17     LegendNANA
08:00 2.0 -7.4 50 0.0 30 20   101.17     LegendNANA
09:00 2.1 -7.6 49 0.0 29 23   101.15     LegendNANA
10:00 2.8 -6.2 52 0.0 27 27   101.15     LegendNANA
11:00 3.2 -6.6 48 0.0 28 25   101.14     LegendNANA
12:00 3.6 -7.1 46 0.0 29 29   101.12     LegendNANA
13:00 4.5 -7.4 42 0.0 28 31   101.10     LegendNANA
14:00 5.2 -7.5 39 0.0 28 33   101.07     LegendNANA
15:00 5.2 -8.6 36 0.0 30 33   101.04     LegendNANA
16:00 6.2 -7.7 36 0.0 28 34   101.06     LegendNANA
17:00 6.2 -8.5 34 0.0 29 32   101.11     LegendNANA
18:00 6.0 -8.6 34 0.0 29 28   101.18     LegendNANA
19:00 5.3 -9.2 34 0.0 29 26   101.25     LegendNANA
20:00 4.0 -9.1 38 0.0 28 20   101.35     LegendNANA
21:00 3.0 -9.5 39 0.0 27 14   101.44     LegendNANA
22:00 1.9 -9.2 44 0.0 26 10   101.46     LegendNANA
23:00 1.3 -9.1 46 0.0 26 10   101.44     LegendNANA

Notes on Data Quality.

Legend

  • E = Estimated
  • M = Missing
  • NA = Not Available*
  • [empty] = Indicates an unobserved value
Date modified: